sat.trackr.live / text

‹ back to catalog

MERIDIAN 7

NORAD 40296 · 2014-069A

PAYLOAD ACTIVE UNKNOWN

§ Identity

Operator
Country
CIS
Launch date
2014-10-30
Launch site
PLMSC
Launch vehicle
Mass (kg)
RCS (m²)
21.23

External: N2YO · Heavens-Above · Gunter

§ Orbital elements

Epoch: 2026-09-19T09:37:25.950720Z

Period
717.83 min
Inclination
63.4472°
Eccentricity
0.6615480
Mean motion
2.00605686 rev/d
Perigee alt
2,610.0 km
Apogee alt
37,747.0 km
Semi-major
26,556.6 km
B*
0.0000e+0
RAAN
206.1668°
Arg perigee
269.9190°
Mean anomaly
20.2140°
Rev number
8,712

§ Raw data

MERIDIAN 71 40296U 14069A   26262.40099480  .00000223  00000+0  00000+0 0  99982 40296  63.4472 206.1668 6615480 269.9190  20.2140  2.00605686 87124

JSON: /api/v1/satellites/40296 · /tle

For live sub-satellite position, see the globe view (requires WebGL).

§ Visibility from observer

Set your observer location to see the next 7 days of passes ≥ 10°. The values pass through the URL so the page stays shareable.

No JS? Fill the form by hand. The geolocation button needs JavaScript.